Regional Weather Roundup
Issued by NWS Burlington, VT

Current Version | Previous Version | Text Only | Print | Product List | Glossary On
Versions: 1 2 3 4 5 6 7 8 9 10 11 12 13 14 15 16 17 18 19 20 21 22 23 24 25 26 27 28 29 30 31 32 33 34 35 36 37 38 39 40 41 42 43 44 45 46 47 48 49 50
000
ASUS41 KBTV 121530
RWRBTV
VERMONT REGIONAL WEATHER ROUNDUP
NATIONAL WEATHER SERVICE BURLINGTON VT
1000 AM EST FRI FEB 12 2016

NOTE: "FAIR" INDICATES FEW OR NO CLOUDS BELOW 12,000 FEET WITH NO
SIGNIFICANT WEATHER AND/OR OBSTRUCTIONS TO VISIBILITY.

* THESE REPORTS ARE NOT UNDER NWS QUALITY CONTROL AND/OR DO NOT
  REPORT WEATHER SUCH AS PRECIPITATION AND FOG.

VTZ001>019-121600-
_____VERMONT_____


CITY           SKY/WX    TMP DP  RH WIND       PRES   REMARKS
BURLINGTON     FAIR       9  -5  53 S9        30.09F WCI  -4
MONTPELIER     FAIR       5  -7  57 SE6       30.05F WCI  -6
MORRISVILLE    FAIR       8  -7  50 CALM      30.05F
ST. JOHNSBURY*   N/A      4  -8  57 MISG      30.06F
LYNDONVILLE*   FAIR       2  -8  64 SE6       30.03S WCI  -9
RUTLAND*       CLOUDY    10  -2  56 S5        30.07F WCI   2
SPRINGFIELD    FAIR      10  -5  50 E3        30.11F
HIGHGATE*      CLOUDY     8  -5  56 S9        30.07F WCI  -6
NEWPORT*       FAIR       4  -7  60 S8        30.01F WCI  -9
BENNINGTON     FAIR      14   2  58 VRB7      30.10F WCI   4
GALLUP MILLS*    N/A      3 N/A N/A MISG        N/A
UNION VILLAGE*   N/A      7 N/A N/A MISG        N/A
MT. MANSFIELD*   N/A      0 N/A N/A NW26        N/A  WCI -25

_____LAKE CHAMPLAIN_____


CITY           SKY/WX    TMP DP  RH WIND       PRES   REMARKS
COLCHESTER RF*   N/A     10   7  85 S22         N/A  WCI  -9
DIAMOND ISL*     N/A     10   1  67 SE14        N/A  WCI  -5

$$

NYZ007-026>031-035-052-083-121600-
_____NORTHERN NEW YORK_____


CITY           SKY/WX    TMP DP  RH WIND       PRES   REMARKS
PLATTSBURGH    PTSUNNY    8  -4  58 S9        30.08F WCI  -5
SARANAC LAKE   CLOUDY     4   0  83 SW10      29.89F FOG     WCI -11
MASSENA        SUNNY      7  -2  66 SE6       30.02F WCI  -3
OGDENSBURG*    SUNNY     18   9  68 S9        29.98F WCI   6
WATERTOWN      LGT SNOW  15   9  76 S9        29.99F VSB 1   WCI   3
ALBANY         CLOUDY    15   3  59 S7        30.16F WCI   5
GLENS FALLS    CLOUDY    10   0  63 S8        30.13F WCI  -2

$$
NHZ002-005-011-121600-
_____NEW HAMPSHIRE_____


CITY           SKY/WX    TMP DP  RH WIND       PRES   REMARKS
LEBANON        MOSUNNY    8  -5  55 CALM      30.10F
MT WASHINGTON  PTSUNNY  -15 -22  70 W56G66      N/A  VSB 1/8 WCI -54
PLYMOUTH       FAIR       9  -6  51 W8        30.09F WCI  -4
WHITEFIELD     SUNNY      4  -9  55 S5        30.04S WCI  -5

$$

_____REGIONAL QUEBEC LOCATIONS_____


CITY           SKY/WX    TMP DP  RH WIND       PRES   REMARKS
MONTREAL       MOSUNNY    7  -6  56 S10       30.05F WCI  -8
QUEBEC CITY    MOSUNNY    0 -13  55 SW9       30.05F WCI -16
SHERBROOKE     SUNNY      1  -8  66 SW7       30.02F WCI -11

_____REGIONAL ONTARIO LOCATIONS_____


CITY           SKY/WX    TMP DP  RH WIND       PRES   REMARKS
OTTAWA         MOSUNNY    7   1  78 S10       29.95F WCI  -8

______KEY______
VSB  - VISIBILITY IN MILES
WCI  - WIND CHILL INDEX
HX   - HEAT INDEX
$$
NNNN



USA.gov is the U.S. government's official web portal to all federal, state and local government web resources and services.